This demonstration page uses our WeatherBlox Daily Observations layout. Learn more.

40.92945, -100.16068

Hourly Observations for March 18, 2020

Temp ( °F °C ) Dew Point ( °F °C ) Humidity (%) Winds ( mph kmh ) Pressure ( in mb ) Visibility ( mi km ) Precip ( " mm )
12:15 am 00:15 Cloudy with Mist and Fog 39 3.7 39 3.7 100 100 SSE 8 13 30 1016 4 6.43736 0 0
12:35 am 00:35 Cloudy with Mist and Fog 39 3.7 39 3.7 100 100 SSE 8 13 29.99 1016 5 8.0467 0 0
12:55 am 00:55 Cloudy with Mist and Fog 39 4 39 4 100 100 SSE 10 17 29.98 1015 3 4.82802 0 0
1:15 am 01:15 Cloudy with Mist and Fog 39 4.1 39 4.1 100 100 SSE 9 15 29.97 1015 1 1.60934 0 0
1:35 am 01:35 Cloudy with Mist and Fog 40 4.3 40 4.3 100 100 S 10 17 29.96 1015 1 1.60934 0 0
1:55 am 01:55 Cloudy with Mist and Fog 40 4.5 40 4.5 100 100 S 9 15 29.95 1014 1 1.60934 0 0
2:15 am 02:15 Cloudy with Mist and Fog 40 4.5 40 4.5 100 100 S 6 9 29.95 1014 1 1.60934 0 0
2:35 am 02:35 Cloudy with Mist and Fog 40 4.6 40 4.6 100 100 S 5 7 29.94 1014 0.75 1.207005 0 0
2:55 am 02:55 Cloudy with Fog 40 4.6 40 4.6 100 100 S 3 6 29.94 1014 0.5 0.80467 0 0
3:15 am 03:15 Cloudy with Fog 40 4.7 40 4.7 100 100 S 5 7 29.95 1014 0.5 0.80467 0 0
3:35 am 03:35 Cloudy with Fog 40 4.7 40 4.7 100 100 S 3 6 29.94 1014 0.5 0.80467 0 0
3:55 am 03:55 Cloudy with Fog 40 4.7 40 4.7 100 100 Calm 29.94 1014 0.25 0.402335 0 0
4:15 am 04:15 Cloudy with Fog 40 4.7 40 4.7 100 100 Calm 29.93 1014 0.25 0.402335 0 0
4:35 am 04:35 Cloudy with Fog 40 4.7 40 4.7 100 100 Calm 29.92 1013 0.25 0.402335 0 0
4:55 am 04:55 Cloudy with Fog 40 4.7 40 4.7 100 100 Calm 29.92 1013 0.25 0.402335 0 0
5:15 am 05:15 Cloudy with Fog 40 4.7 40 4.7 100 100 Calm 29.91 1013 0.25 0.402335 0 0
5:35 am 05:35 Cloudy with Fog 40 4.6 40 4.6 100 100 NE 3 6 29.91 1013 0.5 0.80467 0 0
5:55 am 05:55 Cloudy with Fog 40 4.5 40 4.5 100 100 Calm 29.91 1013 0.5 0.80467 0 0
6:15 am 06:15 Cloudy with Fog 40 4.5 40 4.5 100 100 NNE 3 6 29.91 1013 0.5 0.80467 0 0
6:35 am 06:35 Cloudy with Fog 40 4.5 40 4.5 100 100 Calm 29.91 1013 0.5 0.80467 0 0
6:55 am 06:55 Cloudy with Fog 40 4.5 40 4.5 100 100 NE 3 6 29.9 1013 0.5 0.80467 0 0
7:15 am 07:15 Cloudy with Fog 40 4.5 40 4.5 100 100 Calm 29.91 1013 0.5 0.80467 0 0
7:35 am 07:35 Cloudy with Fog 40 4.7 40 4.7 100 100 Calm 29.91 1013 0.5 0.80467 0 0
7:55 am 07:55 Cloudy with Fog 40 4.7 40 4.7 100 100 Calm 29.93 1014 0.25 0.402335 0 0
8:15 am 08:15 Cloudy with Fog 41 4.8 41 4.8 100 100 ENE 3 6 29.94 1014 0.25 0.402335 0 0
8:35 am 08:35 Cloudy with Fog 41 4.9 41 4.9 100 100 ENE 3 6 29.94 1014 0.25 0.402335 0 0
8:55 am 08:55 Cloudy with Mist and Fog 41 5 41 5 100 100 ENE 3 6 29.95 1014 0.75 1.207005 0 0
9:15 am 09:15 Cloudy with Mist and Fog 41 5.1 41 5.1 100 100 NE 5 7 29.96 1014 2.5 4.02335 0 0
9:35 am 09:35 Cloudy with Mist and Fog 42 5.3 42 5.3 100 100 NE 7 11 29.97 1015 2 3.21868 0 0
9:55 am 09:55 Cloudy with Mist and Fog 42 5.7 42 5.7 100 100 NE 7 11 29.96 1015 1.5 2.41401 0 0
10:15 am 10:15 Cloudy with Mist and Fog 43 6 43 6 100 100 ENE 6 9 29.96 1015 3 4.82802 0 0
10:35 am 10:35 Cloudy with Mist and Fog 44 6.6 44 6.6 100 100 NE 6 9 29.95 1014 4 6.43736 0 0
11:35 am 11:35 Cloudy with Mist and Fog 45 7.1 44 6.9 99 99 N 6 9 29.95 1014 4 6.43736 0 0
11:55 am 11:55 Cloudy with Mist and Fog 45 7.2 45 7 99 99 NE 6 9 29.94 1014 3 4.82802 0 0
12:15 pm 12:15 Cloudy with Mist and Fog 45 7.3 45 7 98 98 ENE 5 7 29.95 1014 3 4.82802 0 0
12:35 pm 12:35 Cloudy with Mist and Fog 46 7.5 44 6.8 95 95 NE 5 7 29.93 1014 5 8.0467 0 0
12:55 pm 12:55 Cloudy with Mist and Fog 46 7.6 45 7 96 96 ENE 5 7 29.92 1013 5 8.0467 0 0
1:15 pm 13:15 Cloudy 46 7.9 45 7.2 95 95 E 5 7 29.92 1013 10 16.0934 0 0
1:35 pm 13:35 Cloudy 47 8.5 46 7.5 94 94 E 7 11 29.91 1013 10 16.0934 0 0
1:55 pm 13:55 Cloudy 47 8.6 46 7.6 94 94 ENE 6 9 29.91 1013 10 16.0934 0 0
2:15 pm 14:15 Cloudy 48 9.1 46 7.7 91 91 E 6 9 29.9 1013 10 16.0934 0 0
2:35 pm 14:35 Cloudy 49 9.5 46 7.8 89 89 ENE 7 11 29.88 1012 10 16.0934 0 0
2:55 pm 14:55 Cloudy 49 9.6 46 7.7 88 88 E 8 13 29.86 1011 10 16.0934 0 0
3:15 pm 15:15 Cloudy 49 9.3 46 7.9 91 91 ESE 7 11 29.89 1012 10 16.0934 0 0
3:35 pm 15:35 Cloudy 48 9 46 7.8 92 92 ESE 7 11 29.89 1012 7 11.26538 0 0
3:55 pm 15:55 Cloudy with Mist and Fog 47 8.5 46 8 97 97 E 7 11 29.9 1012 1.75 2.816345 0 0
4:15 pm 16:15 Cloudy with Mist and Fog 47 8.5 47 8.1 97 97 E 8 13 29.89 1012 1.75 2.816345 0 0
4:35 pm 16:35 Cloudy with Mist and Fog 48 8.7 47 8.4 98 98 E 10 17 29.87 1012 1.75 2.816345 0 0
4:55 pm 16:55 Cloudy with Mist and Fog 47 8.6 47 8.3 98 98 E 12 19 29.86 1011 2.5 4.02335 0 0
5:15 pm 17:15 Cloudy with Mist and Fog 48 9 47 8.4 96 96 E 9 15 29.87 1012 5 8.0467 0 0
5:35 pm 17:35 Cloudy with Mist and Fog 48 8.8 47 8.5 98 98 E 9 15 29.87 1012 2 3.21868 0 0
5:55 pm 17:55 Cloudy with Mist and Fog 48 8.8 47 8.5 98 98 ESE 8 13 29.88 1012 2 3.21868 0 0
6:15 pm 18:15 Cloudy with Mist and Fog 48 8.7 47 8.5 99 99 E 9 15 29.87 1012 1.75 2.816345 0 0
6:35 pm 18:35 Cloudy with Light Rain 47 8.5 47 8.5 100 100 E 10 17 29.88 1012 1.5 2.41401 0 0
6:55 pm 18:55 Cloudy with Mist and Fog 47 8.5 47 8.4 99 99 ESE 9 15 29.89 1012 2 3.21868 0 0
7:15 pm 19:15 Cloudy with Light Drizzle 47 8.6 47 8.6 100 100 E 8 13 29.87 1012 1.5 2.41401 0 0
7:35 pm 19:35 Cloudy with Mist and Fog 47 8.5 47 8.5 100 100 E 9 15 29.89 1012 1.75 2.816345 0.01 0.254
7:55 pm 19:55 Cloudy with Mist and Fog 47 8.5 47 8.5 100 100 E 10 17 29.88 1012 3 4.82802 0.01 0.254
8:15 pm 20:15 Cloudy with Mist and Fog 47 8.3 47 8.3 100 100 E 8 13 29.88 1012 3 4.82802 0 0
8:35 pm 20:35 Cloudy with Mist and Fog 47 8.3 47 8.3 100 100 E 8 13 29.88 1012 2.5 4.02335 0 0
8:55 pm 20:55 Cloudy with Mist and Fog 47 8.3 47 8.3 100 100 E 9 15 29.89 1012 2.5 4.02335 0 0
9:15 pm 21:15 Cloudy with Mist and Fog 47 8.3 47 8.3 100 100 E 6 9 29.89 1012 1.75 2.816345 0 0
9:35 pm 21:35 Cloudy with Mist and Fog 47 8.1 47 8.1 100 100 E 8 13 29.87 1011 1 1.60934 0 0
9:55 pm 21:55 Cloudy with Fog 47 8.1 47 8.1 100 100 E 9 15 29.86 1011 0.5 0.80467 0 0
10:15 pm 22:15 Cloudy with Fog 47 8.1 47 8.1 100 100 E 9 15 29.85 1011 0.25 0.402335 0 0
10:35 pm 22:35 Cloudy with Fog 47 8.1 47 8.1 100 100 E 10 17 29.85 1011 0.25 0.402335 0 0
10:55 pm 22:55 Cloudy with Fog 47 8.1 47 8.1 100 100 E 13 20 29.84 1010 0.25 0.402335 0 0
11:15 pm 23:15 Cloudy with Fog 47 8.1 47 8.1 100 100 E 13 20 29.84 1010 0.25 0.402335 0 0
11:35 pm 23:35 Cloudy with Fog 47 8.2 47 8.2 100 100 ESE 10 17 29.85 1011 0.5 0.80467 0 0
11:55 pm 23:55 Cloudy with Fog 47 8.2 47 8.2 100 100 ESE 9 15 29.86 1011 0.5 0.80467 0 0

Powered by AerisWeather